User: anonymous   Login
Location: Albany
(35.0000°S, 118.0000°E)
Time: 11:44:46
(UTC-04:00)
Language:

SJ-6B - Orbit

View from above orbital plane
View from above orbital plane
View from above satellite
View from above satellite

Ground track
Ground track

The orbit data is extracted from the following two-line orbital elements,

1 28415U 04035C   17177.65387265 -.00000045 +00000-0 +15386-5 0  9995
2 28415 097.7452 206.8631 0053950 089.2263 271.5145 15.06205918700003
Epoch (UTC): 26 June 2017 15:41:34
Eccentricity: 0.0053950
inclination: 97.7452°
perigee height: 510 km
apogee height: 585 km
right ascension of ascending node: 206.8631°
argument of perigee: 89.2263°
revolutions per day: 15.06205918
mean anomaly at epoch: 271.5145°
orbit number at epoch: 70000

The dashed part of the orbit path shows where the satellite is in the earth's shadow,  

DLR